Home   Weather   Traiskirchen   Past weeks

Flag for Austria Past Weather in Traiskirchen, Lower Austria, Austria — Yesterday and Last 2 Weeks

Now
20 °F

Passing clouds.


Feels Like: N/A
Forecast: 22 / 35 °F
Wind: N/A

Location: Wien / Schwechat-Flughafen

Current Time: Dec 4, 2016 at 3:07:36 am

Latest Report: Dec 4, 2016 at 2:00 am


Visibility: 7 mi

Pressure: 30.43 "Hg

Humidity: 93%

Dew Point: 18 °F

Location of TraiskirchenLocation

Past Weather in Traiskirchen — Graph

°F

Traiskirchen Temperature Yesterday

Maximum temperature yesterday: 39 °F (at 2:00 pm)
Minimum temperature yesterday: 22 °F (at 10:00 pm)
Average temperature yesterday: 32 °F

High & Low Weather Summary for the Past Weeks

 TemperatureHumidityPressure
High60 °F (Nov 22, 2:00 pm)100% (Nov 19, 1:00 am)30.56 "Hg (Nov 19, 1:00 am)
Low22 °F (Nov 30, 7:00 am)37% (Nov 30, 1:00 pm)29.76 "Hg (Nov 19, 4:00 pm)
Average42 °F79%30.13 "Hg
* Reported Nov 19 1:00 am — Dec 4 1:00 am, Traiskirchen, Weather by CustomWeather, © 2016

Note: Actual official high and low records may vary slightly from our data, if they occured in-between our weather recording intervals... More about our weather records

Advertising

Traiskirchen Weather History for the Previous 24 Hours

Scroll right to see more
 ConditionsComfort  
Time TempWeatherWind HumidityBarometerVisibility
1:00 am
Sun, Dec 4
22 °FPassing clouds.N/A94%30.42 "Hg8 mi
12:00 am22 °FPassing clouds.N/A93%30.42 "Hg7 mi
11:00 pm
Sat, Dec 3
23 °FPassing clouds.N/A90%30.41 "Hg9 mi
10:00 pm22 °FPassing clouds.3 mph91%30.41 "Hg10 mi
9:00 pm28 °FPassing clouds.N/A80%30.39 "Hg10 mi
8:00 pm26 °FPassing clouds.N/A82%30.38 "Hg15 mi
7:00 pm31 °FPassing clouds.N/A79%30.37 "Hg22 mi
6:00 pm31 °FPassing clouds.N/A75%30.35 "Hg22 mi
5:00 pm33 °FPassing clouds.N/A69%30.34 "Hg28 mi
4:00 pm35 °FPassing clouds.N/A65%30.33 "Hg28 mi
3:00 pm38 °FPassing clouds.3 mph57%30.32 "Hg28 mi
2:00 pm39 °FPassing clouds.5 mph55%30.31 "Hg25 mi
1:00 pm38 °FScattered clouds.6 mph57%30.31 "Hg19 mi
12:00 pm37 °FScattered clouds.8 mph61%30.31 "Hg17 mi
11:00 am38 °FPassing clouds.7 mph63%30.31 "Hg19 mi
10:00 am36 °FPassing clouds.5 mph71%30.31 "Hg22 mi
9:00 am33 °FPassing clouds.5 mph76%30.29 "Hg15 mi
8:00 am31 °FPassing clouds.5 mph79%30.27 "Hg17 mi
7:00 am31 °FPassing clouds.N/A76%30.26 "Hg22 mi
6:00 am30 °FPassing clouds.N/A78%30.26 "Hg28 mi
5:00 am31 °FPassing clouds.N/A77%30.25 "Hg22 mi
4:00 am31 °FPassing clouds.N/A76%30.25 "Hg25 mi
3:00 am33 °FPassing clouds.6 mph75%30.23 "Hg28 mi
Weather by CustomWeather, © 2016

See weather overviewHow to use our weather pages